Temperature
21 22 22 23 23 23 23 24 24 24 25 24 24 23 22 22 23 22 22 21 20 19 18 18 18 18 18 18 19 19 19 19 19 18 18 17 17 17 17 17 17 17 17 17
21 21 23 23 22 22 23 23 24 24 24 24 23 21 21 21 20 20 20 19 18 17 17 16 17 17 17 17 18 18 19 19 19 18 18 17 17 16 16 16 16 16 16 16
21 22 22 22 22 22 22 23 24 24 24 24 23 21 20 19 19 18 18 17 17 16 16 16 16 16 16 17 17 17 18 18 18 18 17 17 16 16 16 16 16 15 15 15
22 23 22 22 22 22 22 23 23 23 23 24 24 23 20 20 19 18 17 16 15 15 15 15 15 15 15 16 16 16 17 17 17 17 17 16 16 16 15 15 15 15 14 14
22 22 22 22 22 22 23 24 23 23 24 24 24 24 21 20 19 17 16 14 14 14 14 14 14 14 14 14 15 15 16 16 16 16 16 16 15 15 15 14 14 14 14 13
22 23 22 23 23 23 23 23 23 23 24 23 24 24 21 21 19 17 15 13 13 13 13 13 13 13 13 13 14 14 15 15 15 15 15 15 15 14 14 13 13 13 12 12
22 22 23 23 22 23 23 22 22 22 23 23 23 23 20 19 18 17 14 13 12 12 12 12 12 12 12 13 13 13 14 14 14 14 14 14 14 13 13 12 12 12 11 11
21 21 22 23 22 23 23 23 22 22 23 23 22 22 18 17 16 14 13 12 12 11 11 11 11 11 11 12 12 12 13 13 13 13 13 13 12 12 12 11 11 10 10 9
21 21 23 23 23 23 23 23 24 23 23 23 22 20 17 16 15 14 13 12 11 10 10 10 10 11 11 11 11 11 12 12 12 12 12 11 11 11 10 10 9 9 8 8
21 21 22 23 23 23 24 24 23 23 22 22 21 21 20 16 15 14 13 11 10 10 10 10 10 10 10 10 10 10 10 10 10 10 10 10 10 9 9 8 8 8 7 7
21 20 21 22 22 22 22 23 23 23 23 23 21 21 22 19 16 14 12 11 10 9 9 9 9 9 9 9 9 9 9 9 9 9 9 8 8 8 7 7 7 6 6 6
21 21 21 21 22 22 23 23 23 22 22 23 23 20 19 19 17 14 12 10 9 9 9 8 8 8 8 8 8 8 8 8 8 7 8 7 7 7 6 6 6 6 6 5
20 20 20 20 21 22 22 22 22 23 22 22 22 20 17 17 15 13 11 10 9 8 8 8 8 7 7 7 7 7 7 7 7 6 6 6 6 6 5 5 5 5 5 4
19 20 20 20 20 21 21 21 22 22 22 22 22 19 16 16 14 12 10 9 8 8 7 7 7 7 7 6 6 6 6 6 6 6 6 5 5 5 5 4 4 4 4 4
20 20 19 20 20 20 20 20 20 21 21 21 21 19 17 15 14 11 10 9 8 7 7 7 6 6 6 6 6 6 6 5 5 5 5 5 4 4 4 4 4 3 3 3
19 19 19 19 20 20 19 19 19 19 19 19 19 17 16 15 12 10 9 8 7 7 6 6 6 6 6 5 5 5 5 5 5 5 4 4 4 4 4 3 3 3 3 3
20 19 19 19 19 20 18 17 17 17 17 18 17 15 14 13 11 10 9 8 7 7 6 6 6 5 5 5 5 5 5 4 4 4 4 4 4 4 4 4 3 3 3 3
19 19 20 19 19 18 16 17 17 16 16 16 15 14 13 11 10 9 9 8 7 6 6 6 5 5 5 5 5 4 4 4 4 4 4 4 4 4 4 4 3 3 3 3
19 19 19 19 19 17 17 17 17 16 15 15 14 12 10 9 9 8 8 7 7 6 6 5 5 5 5 4 4 4 4 4 4 4 4 4 4 4 4 4 3 3 3 3
19 19 19 19 18 17 16 17 16 16 15 14 13 11 11 11 11 8 7 7 6 6 5 5 5 5 4 4 4 4 5 4 4 4 4 4 4 4 4 4 3 3 3 3
19 19 19 18 18 17 16 16 16 16 14 13 12 11 11 11 10 7 6 6 6 5 5 5 5 5 4 4 4 4 4 4 4 4 4 4 4 4 4 4 3 3 3 3
19 19 18 18 18 16 15 16 15 14 12 12 11 10 10 8 7 6 6 6 5 5 5 5 5 4 4 4 4 4 4 4 4 4 4 4 4 4 4 4 3 3 3 3
18 18 18 17 16 14 13 13 12 12 12 11 10 9 8 7 7 6 6 5 5 5 5 5 5 4 4 4 4 5 4 4 4 4 4 4 4 4 4 4 4 4 3 3
17 16 17 16 15 14 13 12 12 12 11 10 10 9 8 7 6 6 5 5 5 5 5 5 5 5 5 5 5 4 4 4 5 5 5 5 4 4 4 4 4 4 4 3
18 17 17 16 15 13 12 12 11 11 10 10 9 8 8 7 6 6 6 5 5 5 5 5 5 5 5 5 5 5 5 5 5 5 5 5 5 5 4 4 4 3 3 2
18 18 18 17 15 15 13 11 10 10 10 9 8 8 7 7 6 6 6 5 5 5 5 5 5 5 5 5 5 5 5 5 5 5 5 5 5 5 5 4 3 3 2 2
Wind_Speed
7 9 10 8 8 6 4 5 6 5 4 4 7 6 7 7 6 7 7 8 8 8 7 6 4 4 5 6 8 9 10 11 10 9 9 8 7 5 3 2 2 3 3 3
8 11 7 5 6 8 8 8 7 6 5 4 8 8 7 8 8 8 8 9 9 8 8 7 6 5 4 4 4 6 8 9 10 8 7 6 6 5 4 4 5 4 3 3
10 2 4 7 9 9 10 9 6 5 6 8 9 7 7 8 9 10 10 10 10 9 9 8 7 7 6 4 3 2 3 5 7 8 8 8 6 5 4 5 4 6 7 7
8 6 7 9 9 10 9 8 7 7 8 9 11 7 8 8 8 9 9 10 10 10 10 9 9 9 8 7 5 4 3 3 4 6 8 10 7 6 4 5 6 9 11 11
6 6 9 10 9 10 7 5 8 8 9 7 9 7 9 9 7 8 8 10 10 10 11 11 11 11 10 9 8 7 8 8 6 5 6 7 7 6 7 8 10 10 10 13
8 5 7 8 7 9 7 6 7 8 10 11 10 8 8 7 8 8 8 9 10 11 11 12 12 12 12 12 12 11 12 12 10 9 9 10 11 11 11 10 10 9 8 10
8 9 8 7 8 10 10 10 9 11 11 9 7 6 6 9 9 11 10 10 10 11 11 12 13 13 13 13 13 13 14 14 13 13 13 12 12 12 12 11 11 10 9 9
6 7 8 7 9 8 12 13 10 8 11 8 7 5 8 10 11 12 12 11 11 12 12 12 12 12 13 14 13 14 15 15 15 16 15 15 14 11 11 13 12 11 10 10
4 2 5 5 7 8 10 12 9 7 5 6 7 6 7 10 11 12 12 12 12 12 12 13 13 13 14 15 14 15 16 16 16 17 17 17 16 15 15 14 13 10 9 10
4 4 4 4 6 7 7 7 7 9 8 8 8 9 10 16 14 12 12 12 12 12 13 13 13 14 14 15 15 16 17 17 17 17 16 15 16 15 14 14 14 12 11 11
5 4 4 6 6 7 7 8 7 8 7 7 8 5 6 17 17 15 14 13 12 13 13 13 13 13 14 14 15 15 15 16 16 16 16 16 15 14 14 13 13 12 11 11
2 4 3 3 1 2 5 5 7 8 7 7 5 4 6 14 17 17 16 14 13 14 13 14 14 14 14 14 14 14 14 15 15 15 15 15 14 14 13 13 12 12 11 11
2 3 4 6 6 5 3 2 4 6 6 7 7 5 8 14 17 17 17 15 14 14 14 13 13 13 13 13 13 14 14 14 14 14 14 14 13 13 12 12 11 11 11 10
3 3 4 0 2 2 2 1 2 6 7 7 5 6 11 15 16 16 16 16 15 14 14 13 13 13 12 12 12 13 13 13 13 13 14 13 12 11 11 11 10 10 10 9
2 1 3 5 5 5 4 3 2 2 5 5 1 5 10 14 16 16 16 17 16 15 14 13 13 12 12 12 12 12 12 12 11 12 12 12 11 10 10 10 9 9 8 8
0 2 4 5 5 5 7 7 5 4 4 3 5 6 7 12 14 15 16 16 16 15 14 14 13 12 12 11 11 11 11 10 10 11 11 10 10 9 9 9 8 7 7 7
1 3 3 3 3 4 4 7 6 5 6 4 3 4 7 10 13 14 15 15 16 15 14 13 12 11 11 10 10 10 10 9 10 10 10 9 9 8 8 7 7 6 6 6
1 2 2 2 4 2 5 4 4 5 7 7 7 8 9 9 10 11 13 15 15 15 14 12 11 10 10 10 9 9 9 9 9 9 9 8 7 7 6 6 6 5 5 5
1 2 2 2 2 4 5 3 3 2 4 6 9 10 11 14 13 10 10 13 15 15 14 12 11 10 10 9 9 9 9 9 8 8 7 7 6 6 5 5 5 5 4 5
2 1 2 2 2 1 4 4 2 2 3 6 8 9 10 10 7 6 11 15 15 14 13 12 11 11 9 8 8 8 8 8 7 7 6 5 4 4 4 4 4 4 3 4
0 1 1 0 1 4 5 3 3 3 3 6 7 7 7 4 8 14 16 16 15 14 13 12 11 10 9 8 7 7 7 7 6 5 4 4 3 2 2 2 2 3 3 4
3 1 1 1 0 3 5 1 3 5 6 8 8 8 11 15 19 17 17 16 16 14 13 11 10 9 8 7 7 7 7 6 5 4 3 2 2 2 2 1 1 2 3 3
2 4 3 4 5 6 5 6 6 6 9 9 10 12 16 18 18 18 16 15 14 13 12 10 10 10 8 6 6 7 6 4 3 2 2 2 2 1 2 2 2 2 2 4
4 2 3 5 7 7 7 8 8 9 10 11 13 15 17 18 18 17 15 14 13 12 11 10 10 9 8 7 6 5 4 2 1 1 1 1 1 1 1 2 3 4 4 5
4 5 4 5 9 9 7 8 10 12 13 14 14 15 17 18 17 16 15 14 12 11 10 9 9 8 8 7 5 4 2 1 1 1 1 2 1 1 1 2 4 5 6 6
4 4 3 3 9 7 10 10 12 13 14 15 16 16 15 16 17 15 14 13 12 11 10 9 8 7 7 5 4 3 1 1 2 2 2 1 1 1 0 2 4 5 4 4
Wind_Direction
200 224 225 219 229 267 257 235 199 170 139 170 148 110 74 64 83 98 105 108 108 100 90 88 101 125 144 159 172 180 188 185 185 188 190 187 186 175 163 145 142 159 166 155
211 229 236 230 227 236 234 230 207 172 154 172 137 109 81 67 73 79 88 92 91 87 81 75 74 87 113 139 158 176 188 187 187 186 185 178 158 148 137 117 96 83 84 93
240 235 196 219 213 223 226 229 217 187 162 168 159 141 115 89 83 81 80 82 82 79 79 74 69 66 71 79 109 148 176 181 182 175 169 152 141 141 142 124 94 63 59 59
240 228 215 222 221 225 223 218 231 219 217 194 209 192 146 127 101 85 79 77 76 75 75 70 65 58 53 52 60 73 91 114 139 160 168 166 165 156 133 111 94 73 60 57
234 220 225 230 228 225 238 222 227 228 234 220 207 213 149 148 127 99 84 79 76 73 73 68 62 59 53 51 58 67 73 72 84 113 140 142 127 115 107 96 86 74 63 59
259 232 238 241 232 225 229 218 221 227 223 220 209 218 163 159 142 122 98 84 79 75 73 69 65 61 55 54 56 61 66 64 67 79 92 108 115 114 107 100 93 81 74 69
230 218 218 232 223 206 219 217 208 207 211 208 182 210 119 110 116 122 111 95 84 78 74 69 64 62 59 58 59 63 67 64 64 71 76 84 93 97 98 97 93 90 82 75
241 213 202 210 226 214 211 224 232 222 209 182 175 174 114 105 107 111 109 102 92 83 77 72 67 65 65 64 64 68 71 70 69 70 72 75 80 85 85 84 86 83 81 77
270 213 171 207 226 240 208 222 244 262 239 203 166 129 126 128 125 122 116 106 95 87 82 78 72 69 68 67 66 70 74 75 74 76 77 76 78 82 86 86 85 84 83 83
286 265 191 188 207 219 249 224 222 239 225 215 185 187 179 166 156 141 128 116 105 98 90 83 78 75 73 73 72 71 73 75 76 78 81 84 83 84 86 86 85 85 85 85
270 263 201 194 211 199 203 211 230 244 258 242 205 177 146 164 160 149 136 126 116 107 99 93 88 83 81 79 77 77 78 79 78 79 81 83 84 86 88 89 90 89 86 83
267 274 227 189 142 258 231 229 229 239 235 255 254 121 107 151 150 143 135 126 118 111 104 99 95 90 87 83 81 80 80 81 83 85 85 84 85 86 87 86 87 87 84 81
288 259 220 178 173 178 198 215 250 258 256 248 247 145 117 138 140 139 135 129 122 115 110 104 99 94 91 89 87 85 84 86 87 88 88 87 86 86 87 87 86 84 82 79
287 282 304 267 108 149 172 240 263 259 252 247 245 153 148 149 145 142 137 132 126 122 117 112 106 101 97 94 92 91 90 90 91 91 89 87 86 86 87 87 85 83 82 79
271 231 87 76 81 85 69 40 10 304 307 289 220 149 157 160 152 145 140 136 131 127 122 119 114 109 105 100 96 94 94 93 94 94 93 91 92 92 91 89 85 81 77 72
270 157 134 117 123 107 74 46 41 28 9 32 93 91 111 139 139 142 143 139 135 131 128 124 118 114 109 105 103 101 100 100 99 97 96 96 96 94 91 88 85 79 70 61
180 195 212 168 168 195 73 33 36 47 29 23 47 91 115 132 144 148 145 140 136 132 129 124 120 117 113 111 111 108 108 108 104 101 99 99 97 93 91 88 80 70 61 52
179 230 241 200 213 206 85 61 52 69 54 51 77 95 98 105 115 124 136 136 134 131 128 124 121 119 118 118 117 116 115 112 107 104 102 99 97 93 86 77 68 57 47 39
2 287 272 246 196 125 125 71 13 14 70 70 99 103 105 109 98 90 112 125 130 130 127 126 126 125 123 125 124 120 117 114 109 104 101 96 91 87 79 68 58 45 33 26
93 281 264 254 255 130 89 39 346 265 133 103 119 131 139 144 133 127 125 123 124 124 124 127 129 128 129 129 127 123 119 115 108 104 99 92 82 70 62 54 38 35 18 11
32 64 22 357 105 90 51 347 276 280 92 125 135 143 149 137 119 130 129 125 125 126 129 132 133 132 130 131 129 123 117 111 108 106 98 88 72 57 44 35 25 5 358 6
351 15 54 317 188 91 31 5 27 64 101 123 126 120 113 111 118 126 128 128 129 130 132 135 135 132 133 135 133 123 114 113 115 109 100 81 46 16 31 14 353 346 336 334
28 22 38 36 61 83 67 71 81 105 119 121 121 120 122 124 127 128 128 129 131 133 136 139 137 134 134 135 131 121 118 120 118 110 72 39 17 3 356 335 338 330 332 346
128 125 120 112 111 107 100 100 102 110 117 119 122 125 126 126 128 129 129 129 132 134 136 140 140 138 135 134 129 125 122 119 112 83 27 346 337 359 72 340 353 358 5 6
137 160 145 127 133 129 117 114 115 115 118 119 122 126 130 130 132 132 132 134 135 136 140 142 139 136 134 136 134 136 137 193 265 308 319 316 341 71 85 64 36 17 45 34
168 175 190 154 161 155 138 133 130 128 128 128 128 127 130 132 132 133 133 135 137 139 141 142 141 138 137 142 141 144 175 271 289 286 288 310 357 42 344 116 124 79 52 93
Height
1505 1502 1498 1495 1495 1493 1493 1491 1490 1489 1489 1490 1493 1497 1499 1500 1499 1500 1503 1505 1508 1511 1514 1516 1518 1520 1523 1525 1527 1530 1533 1535 1538 1541 1544 1546 1549 1551 1553 1554 1556 1557 1558 1558
1502 1499 1494 1495 1496 1497 1495 1495 1491 1490 1490 1491 1496 1501 1503 1504 1505 1505 1507 1508 1511 1513 1515 1516 1517 1519 1521 1523 1525 1527 1530 1533 1535 1537 1540 1542 1545 1547 1549 1550 1552 1554 1555 1555
1496 1492 1495 1497 1497 1497 1495 1493 1489 1489 1490 1490 1493 1502 1505 1508 1509 1510 1511 1511 1513 1514 1516 1517 1518 1519 1520 1522 1523 1525 1528 1530 1532 1534 1536 1538 1540 1543 1544 1546 1548 1549 1551 1551
1493 1491 1495 1495 1494 1493 1493 1488 1490 1490 1490 1487 1487 1495 1504 1506 1510 1513 1514 1515 1516 1517 1517 1518 1519 1519 1520 1521 1522 1524 1525 1527 1529 1531 1534 1535 1537 1539 1541 1542 1544 1546 1547 1548
1489 1490 1492 1492 1490 1490 1487 1485 1487 1487 1486 1485 1486 1488 1501 1503 1509 1515 1518 1518 1518 1519 1519 1520 1520 1520 1521 1521 1522 1523 1524 1525 1527 1529 1531 1533 1535 1537 1539 1540 1542 1543 1545 1546
1487 1488 1488 1486 1486 1487 1486 1487 1487 1485 1483 1493 1484 1486 1499 1500 1507 1515 1519 1521 1521 1521 1521 1522 1522 1522 1522 1522 1522 1523 1523 1525 1526 1528 1529 1531 1532 1535 1536 1538 1540 1542 1544 1545
1486 1484 1485 1486 1486 1486 1486 1489 1493 1492 1490 1487 1482 1486 1501 1503 1509 1514 1520 1522 1523 1523 1524 1524 1524 1524 1524 1524 1524 1524 1524 1525 1526 1527 1529 1530 1532 1534 1536 1537 1539 1541 1543 1545
1485 1484 1480 1482 1483 1482 1483 1483 1488 1490 1487 1483 1486 1492 1507 1510 1514 1518 1522 1524 1525 1526 1526 1526 1526 1527 1526 1526 1526 1526 1526 1527 1528 1529 1530 1531 1533 1535 1537 1539 1540 1542 1544 1545
1483 1482 1478 1479 1480 1479 1480 1478 1472 1477 1476 1484 1489 1499 1510 1514 1517 1521 1523 1526 1527 1528 1529 1529 1529 1529 1529 1529 1529 1529 1529 1529 1530 1531 1532 1534 1536 1537 1539 1540 1542 1544 1546 1547
1483 1484 1478 1478 1479 1479 1475 1472 1477 1479 1486 1490 1492 1494 1496 1510 1516 1520 1524 1527 1529 1531 1531 1532 1532 1532 1532 1532 1533 1532 1533 1533 1534 1534 1535 1537 1539 1541 1543 1544 1545 1547 1548 1549
1484 1485 1480 1477 1478 1476 1478 1478 1476 1473 1472 1480 1491 1491 1483 1497 1509 1517 1524 1528 1531 1532 1534 1534 1535 1535 1536 1536 1537 1536 1537 1537 1538 1539 1540 1541 1543 1545 1547 1548 1549 1550 1551 1552
1484 1482 1480 1478 1477 1476 1474 1474 1475 1481 1480 1476 1477 1495 1492 1497 1507 1516 1523 1528 1532 1534 1536 1537 1538 1539 1540 1540 1541 1541 1542 1542 1543 1545 1545 1546 1548 1550 1551 1552 1553 1554 1554 1555
1485 1485 1486 1484 1483 1479 1477 1477 1476 1475 1476 1478 1481 1496 1498 1501 1510 1517 1524 1529 1533 1535 1538 1540 1541 1542 1543 1544 1545 1546 1547 1547 1549 1550 1550 1551 1553 1554 1555 1555 1556 1556 1557 1557
1488 1484 1485 1487 1482 1478 1481 1480 1478 1477 1478 1478 1478 1490 1501 1505 1512 1519 1525 1530 1534 1537 1540 1542 1544 1545 1547 1548 1549 1550 1551 1552 1553 1554 1555 1555 1556 1557 1558 1559 1559 1559 1559 1559
1487 1485 1484 1484 1483 1482 1484 1484 1482 1482 1480 1480 1481 1488 1498 1505 1513 1520 1526 1530 1534 1538 1541 1544 1546 1548 1549 1551 1552 1553 1554 1555 1557 1557 1558 1558 1559 1561 1561 1561 1562 1561 1561 1561
1487 1487 1486 1487 1485 1484 1488 1489 1488 1488 1487 1486 1488 1497 1503 1508 1516 1522 1527 1531 1535 1539 1543 1546 1548 1550 1552 1554 1555 1556 1557 1559 1560 1560 1561 1562 1563 1563 1564 1564 1564 1564 1563 1563
1485 1487 1487 1488 1485 1485 1494 1497 1495 1497 1496 1495 1498 1505 1509 1513 1518 1523 1528 1532 1536 1540 1544 1547 1550 1552 1554 1556 1557 1559 1560 1562 1562 1563 1564 1565 1566 1566 1567 1567 1567 1566 1565 1564
1487 1486 1484 1485 1489 1498 1504 1501 1500 1501 1503 1503 1505 1510 1514 1517 1522 1525 1529 1533 1537 1541 1545 1549 1552 1554 1557 1558 1560 1561 1563 1565 1566 1566 1567 1568 1568 1569 1569 1568 1568 1567 1566 1565
1489 1487 1485 1485 1488 1497 1502 1501 1501 1502 1506 1509 1511 1516 1519 1521 1525 1531 1533 1536 1539 1543 1547 1551 1554 1557 1559 1561 1562 1564 1565 1567 1568 1569 1569 1570 1570 1570 1570 1570 1569 1568 1567 1565
1489 1487 1485 1487 1492 1499 1504 1503 1504 1504 1508 1513 1515 1518 1520 1522 1525 1535 1537 1539 1542 1546 1550 1553 1557 1559 1561 1563 1565 1566 1567 1569 1570 1571 1571 1571 1571 1571 1571 1570 1569 1568 1567 1565
1488 1488 1488 1489 1493 1498 1505 1505 1504 1506 1511 1515 1516 1518 1520 1522 1525 1533 1537 1541 1545 1549 1552 1555 1558 1561 1563 1565 1567 1568 1569 1570 1571 1572 1572 1572 1572 1572 1571 1570 1569 1568 1567 1565
1489 1489 1492 1491 1494 1505 1508 1505 1507 1512 1514 1516 1518 1520 1521 1525 1529 1535 1540 1544 1548 1551 1555 1558 1561 1563 1565 1567 1569 1570 1571 1572 1572 1573 1573 1573 1572 1572 1571 1570 1569 1568 1566 1565
1491 1494 1492 1498 1505 1510 1511 1512 1514 1515 1516 1519 1521 1523 1525 1528 1533 1538 1542 1546 1550 1554 1557 1560 1563 1565 1567 1569 1570 1572 1572 1573 1574 1574 1574 1573 1573 1572 1571 1570 1569 1567 1566 1565
1497 1499 1498 1502 1508 1512 1514 1515 1517 1518 1520 1522 1524 1526 1529 1533 1537 1541 1545 1549 1553 1557 1560 1562 1565 1567 1569 1570 1572 1573 1573 1574 1574 1574 1574 1573 1572 1571 1570 1569 1569 1567 1566 1564
1494 1497 1498 1503 1510 1514 1516 1518 1519 1521 1523 1525 1528 1531 1533 1536 1540 1544 1548 1552 1556 1559 1562 1565 1567 1569 1570 1572 1573 1574 1574 1574 1574 1574 1573 1573 1572 1571 1570 1569 1568 1567 1565 1563
1494 1495 1496 1498 1506 1509 1516 1519 1521 1523 1526 1528 1531 1534 1538 1541 1544 1548 1552 1555 1558 1562 1564 1567 1569 1570 1572 1573 1574 1574 1574 1574 1574 1573 1573 1572 1571 1570 1569 1568 1567 1565 1564 1562